Year,Month,Day,Hour,Minute,Value (Times are PST for temperature in C)
2009,07,18,00,00,18.60
2009,07,18,00,01,18.60
2009,07,18,00,02,18.60
2009,07,18,00,03,18.70
2009,07,18,00,04,18.70
2009,07,18,00,05,18.70
2009,07,18,00,06,18.70
2009,07,18,00,07,18.70
2009,07,18,00,08,18.70
2009,07,18,00,09,18.80
2009,07,18,00,10,18.80
2009,07,18,00,11,18.80
2009,07,18,00,12,18.80
2009,07,18,00,13,18.80
2009,07,18,00,14,18.70
2009,07,18,00,15,18.60
2009,07,18,00,16,18.60
2009,07,18,00,17,18.50
2009,07,18,00,18,18.50
2009,07,18,00,19,18.40
2009,07,18,00,20,18.40
2009,07,18,00,21,18.30
2009,07,18,00,22,18.20
2009,07,18,00,23,18.20
2009,07,18,00,24,18.10
2009,07,18,00,25,18.10
2009,07,18,00,26,18.00
2009,07,18,00,27,17.90
2009,07,18,00,28,17.90
2009,07,18,00,29,17.80
2009,07,18,00,30,17.80
2009,07,18,00,31,17.70
2009,07,18,00,32,17.70
2009,07,18,00,33,17.60
2009,07,18,00,34,17.60
2009,07,18,00,35,17.50
2009,07,18,00,36,17.40
2009,07,18,00,37,17.30
2009,07,18,00,38,17.30
2009,07,18,00,39,17.30
2009,07,18,00,40,17.30
2009,07,18,00,41,17.20
2009,07,18,00,42,17.20
2009,07,18,00,43,17.20
2009,07,18,00,44,17.20
2009,07,18,00,45,17.20
2009,07,18,00,46,17.10
2009,07,18,00,47,17.10
2009,07,18,00,48,17.10
2009,07,18,00,49,17.10
2009,07,18,00,50,17.00
2009,07,18,00,51,17.00
2009,07,18,00,52,16.90
2009,07,18,00,53,16.90
2009,07,18,00,54,16.80
2009,07,18,00,55,16.70
2009,07,18,00,56,16.60
2009,07,18,00,57,16.60
2009,07,18,00,58,16.70
2009,07,18,00,59,16.70
2009,07,18,01,00,16.80
2009,07,18,01,01,16.90
2009,07,18,01,02,16.80
2009,07,18,01,03,16.80
2009,07,18,01,04,16.70
2009,07,18,01,05,16.50
2009,07,18,01,06,16.50
2009,07,18,01,07,16.60
2009,07,18,01,08,16.80
2009,07,18,01,09,16.80
2009,07,18,01,10,16.80
2009,07,18,01,11,16.70
2009,07,18,01,12,16.70
2009,07,18,01,13,16.50
2009,07,18,01,14,16.40
2009,07,18,01,15,16.40
2009,07,18,01,16,16.40
2009,07,18,01,17,16.40
2009,07,18,01,18,16.50
2009,07,18,01,19,16.80
2009,07,18,01,20,16.90
2009,07,18,01,21,17.10
2009,07,18,01,22,17.10
2009,07,18,01,23,17.20
2009,07,18,01,24,17.30
2009,07,18,01,25,17.30
2009,07,18,01,26,17.50
2009,07,18,01,27,17.60
2009,07,18,01,28,17.60
2009,07,18,01,29,17.60
2009,07,18,01,30,17.40
2009,07,18,01,31,17.30
2009,07,18,01,32,17.20
2009,07,18,01,33,17.00
2009,07,18,01,34,16.80
2009,07,18,01,35,16.70
2009,07,18,01,36,16.60
2009,07,18,01,37,16.40
2009,07,18,01,38,16.30
2009,07,18,01,39,16.20
2009,07,18,01,40,16.20
2009,07,18,01,41,16.10
2009,07,18,01,42,16.10
2009,07,18,01,43,16.00
2009,07,18,01,44,15.90
2009,07,18,01,45,15.80
2009,07,18,01,46,15.70
2009,07,18,01,47,15.60
2009,07,18,01,48,15.40
2009,07,18,01,49,15.30
2009,07,18,01,50,15.10
2009,07,18,01,51,15.00
2009,07,18,01,52,15.00
2009,07,18,01,53,15.00
2009,07,18,01,54,15.00
2009,07,18,01,55,15.00
2009,07,18,01,56,15.00
2009,07,18,01,57,15.00
2009,07,18,01,58,15.00
2009,07,18,01,59,15.00
2009,07,18,02,00,15.00
2009,07,18,02,01,15.00
2009,07,18,02,02,15.00
2009,07,18,02,03,15.00
2009,07,18,02,04,15.00
2009,07,18,02,05,15.00
2009,07,18,02,06,15.00
2009,07,18,02,07,15.00
2009,07,18,02,08,14.90
2009,07,18,02,09,14.80
2009,07,18,02,10,14.70
2009,07,18,02,11,14.60
2009,07,18,02,12,14.50
2009,07,18,02,13,14.40
2009,07,18,02,14,14.40
2009,07,18,02,15,14.40
2009,07,18,02,16,14.50
2009,07,18,02,17,14.50
2009,07,18,02,18,14.60
2009,07,18,02,19,14.70
2009,07,18,02,20,14.70
2009,07,18,02,21,14.80
2009,07,18,02,22,15.00
2009,07,18,02,23,15.00
2009,07,18,02,24,15.00
2009,07,18,02,25,15.20
2009,07,18,02,26,15.30
2009,07,18,02,27,15.40
2009,07,18,02,28,15.60
2009,07,18,02,29,15.70
2009,07,18,02,30,15.70
2009,07,18,02,31,15.70
2009,07,18,02,32,15.60
2009,07,18,02,33,15.60
2009,07,18,02,34,15.40
2009,07,18,02,35,15.30
2009,07,18,02,36,15.30
2009,07,18,02,37,15.30
2009,07,18,02,38,15.20
2009,07,18,02,39,15.20
2009,07,18,02,40,15.30
2009,07,18,02,41,15.40
2009,07,18,02,42,15.40
2009,07,18,02,43,15.40
2009,07,18,02,44,15.50
2009,07,18,02,45,15.60
2009,07,18,02,46,15.50
2009,07,18,02,47,15.50
2009,07,18,02,48,15.60
2009,07,18,02,49,15.60
2009,07,18,02,50,15.50
2009,07,18,02,51,15.50
2009,07,18,02,52,15.40
2009,07,18,02,53,15.40
2009,07,18,02,54,15.40
2009,07,18,02,55,15.40
2009,07,18,02,56,15.40
2009,07,18,02,57,15.50
2009,07,18,02,58,15.50
2009,07,18,02,59,15.60
2009,07,18,03,00,15.70
2009,07,18,03,01,15.90
2009,07,18,03,02,16.10
2009,07,18,03,03,16.30
2009,07,18,03,04,16.50
2009,07,18,03,05,16.60
2009,07,18,03,06,16.60
2009,07,18,03,07,16.60
2009,07,18,03,08,16.60
2009,07,18,03,09,16.70
2009,07,18,03,10,16.70
2009,07,18,03,11,16.80
2009,07,18,03,12,16.80
2009,07,18,03,13,16.90
2009,07,18,03,14,16.90
2009,07,18,03,15,16.90
2009,07,18,03,16,17.00
2009,07,18,03,17,17.10
2009,07,18,03,18,17.20
2009,07,18,03,19,17.30
2009,07,18,03,20,17.40
2009,07,18,03,21,17.40
2009,07,18,03,22,17.40
2009,07,18,03,23,17.40
2009,07,18,03,24,17.50
2009,07,18,03,25,17.60
2009,07,18,03,26,17.60
2009,07,18,03,27,17.60
2009,07,18,03,28,17.70
2009,07,18,03,29,17.70
2009,07,18,03,30,17.60
2009,07,18,03,31,17.60
2009,07,18,03,32,17.50
2009,07,18,03,33,17.40
2009,07,18,03,34,17.30
2009,07,18,03,35,17.20
2009,07,18,03,36,17.00
2009,07,18,03,37,16.90
2009,07,18,03,38,16.80
2009,07,18,03,39,16.60
2009,07,18,03,40,16.60
2009,07,18,03,41,16.70
2009,07,18,03,42,16.80
2009,07,18,03,43,16.90
2009,07,18,03,44,17.00
2009,07,18,03,45,17.10
2009,07,18,03,46,17.20
2009,07,18,03,47,17.30
2009,07,18,03,48,17.20
2009,07,18,03,49,17.10
2009,07,18,03,50,17.20
2009,07,18,03,51,17.30
2009,07,18,03,52,17.40
2009,07,18,03,53,17.50
2009,07,18,03,54,17.50
2009,07,18,03,55,17.60
2009,07,18,03,56,17.60
2009,07,18,03,57,17.50
2009,07,18,03,58,17.50
2009,07,18,03,59,17.50
2009,07,18,04,00,17.50
2009,07,18,04,01,17.60
2009,07,18,04,02,17.60
2009,07,18,04,03,17.60
2009,07,18,04,04,17.70
2009,07,18,04,05,17.90
2009,07,18,04,06,18.00
2009,07,18,04,07,18.00
2009,07,18,04,08,18.10
2009,07,18,04,09,18.10
2009,07,18,04,10,18.10
2009,07,18,04,11,18.10
2009,07,18,04,12,18.20
2009,07,18,04,13,18.20
2009,07,18,04,14,18.20
2009,07,18,04,15,18.20
2009,07,18,04,16,18.20
2009,07,18,04,17,18.10
2009,07,18,04,18,18.10
2009,07,18,04,19,18.00
2009,07,18,04,20,17.90
2009,07,18,04,21,17.70
2009,07,18,04,22,17.60
2009,07,18,04,23,17.40
2009,07,18,04,24,17.30
2009,07,18,04,25,17.20
2009,07,18,04,26,17.10
2009,07,18,04,27,17.00
2009,07,18,04,28,17.00
2009,07,18,04,29,16.90
2009,07,18,04,30,16.90
2009,07,18,04,31,16.90
2009,07,18,04,32,16.80
2009,07,18,04,33,16.80
2009,07,18,04,34,16.80
2009,07,18,04,35,16.80
2009,07,18,04,36,16.80
2009,07,18,04,37,16.80
2009,07,18,04,38,16.80
2009,07,18,04,39,16.80
2009,07,18,04,40,16.80
2009,07,18,04,41,16.70
2009,07,18,04,42,16.70
2009,07,18,04,43,16.60
2009,07,18,04,44,16.60
2009,07,18,04,45,16.50
2009,07,18,04,46,16.40
2009,07,18,04,47,16.30
2009,07,18,04,48,16.20
2009,07,18,04,49,16.10
2009,07,18,04,50,16.00
2009,07,18,04,51,16.00
2009,07,18,04,52,16.00
2009,07,18,04,53,15.90
2009,07,18,04,54,15.90
2009,07,18,04,55,15.80
2009,07,18,04,56,15.80
2009,07,18,04,57,15.80
2009,07,18,04,58,15.80
2009,07,18,04,59,15.70
2009,07,18,05,00,15.70
2009,07,18,05,01,15.60
2009,07,18,05,02,15.50
2009,07,18,05,03,15.50
2009,07,18,05,04,15.40
2009,07,18,05,05,15.40
2009,07,18,05,06,15.40
2009,07,18,05,07,15.40
2009,07,18,05,08,15.40
2009,07,18,05,09,15.40
2009,07,18,05,10,15.40
2009,07,18,05,11,15.40
2009,07,18,05,12,15.40
2009,07,18,05,13,15.40
2009,07,18,05,14,15.40
2009,07,18,05,15,15.40
2009,07,18,05,16,15.30
2009,07,18,05,17,15.30
2009,07,18,05,18,15.30
2009,07,18,05,19,15.30
2009,07,18,05,20,15.30
2009,07,18,05,21,15.30
2009,07,18,05,22,15.30
2009,07,18,05,23,15.30
2009,07,18,05,24,15.30
2009,07,18,05,25,15.30
2009,07,18,05,26,15.40
2009,07,18,05,27,15.40
2009,07,18,05,28,15.40
2009,07,18,05,29,15.40
2009,07,18,05,30,15.40
2009,07,18,05,31,15.40
2009,07,18,05,32,15.50
2009,07,18,05,33,15.60
2009,07,18,05,34,15.70
2009,07,18,05,35,15.80
2009,07,18,05,36,15.90
2009,07,18,05,37,15.90
2009,07,18,05,38,16.00
2009,07,18,05,39,16.00
2009,07,18,05,40,16.00
2009,07,18,05,41,16.00
2009,07,18,05,42,15.90
2009,07,18,05,43,15.90
2009,07,18,05,44,15.80
2009,07,18,05,45,15.60
2009,07,18,05,46,15.70
2009,07,18,05,47,15.60
2009,07,18,05,48,15.70
2009,07,18,05,49,15.70
2009,07,18,05,50,15.70
2009,07,18,05,51,15.70
2009,07,18,05,52,15.60
2009,07,18,05,53,15.70
2009,07,18,05,54,15.70
2009,07,18,05,55,15.70
2009,07,18,05,56,15.70
2009,07,18,05,57,15.70
2009,07,18,05,58,15.70
2009,07,18,05,59,15.70
2009,07,18,06,00,15.70
2009,07,18,06,01,15.70
2009,07,18,06,02,15.80
2009,07,18,06,03,15.80
2009,07,18,06,04,15.80
2009,07,18,06,05,15.80
2009,07,18,06,06,15.80
2009,07,18,06,07,15.80
2009,07,18,06,08,15.80
2009,07,18,06,09,15.80
2009,07,18,06,10,15.80
2009,07,18,06,11,15.80
2009,07,18,06,12,15.80
2009,07,18,06,13,15.90
2009,07,18,06,14,15.90
2009,07,18,06,15,15.90
2009,07,18,06,16,15.90
2009,07,18,06,17,15.90
2009,07,18,06,18,15.90
2009,07,18,06,19,15.90
2009,07,18,06,20,15.90
2009,07,18,06,21,15.90
2009,07,18,06,22,15.80
2009,07,18,06,23,15.80
2009,07,18,06,24,15.80
2009,07,18,06,25,15.80
2009,07,18,06,26,15.90
2009,07,18,06,27,15.90
2009,07,18,06,28,16.00
2009,07,18,06,29,16.10
2009,07,18,06,30,16.10
2009,07,18,06,31,16.20
2009,07,18,06,32,16.30
2009,07,18,06,33,16.40
2009,07,18,06,34,16.60
2009,07,18,06,35,16.70
2009,07,18,06,36,16.70
2009,07,18,06,37,16.90
2009,07,18,06,38,17.10
2009,07,18,06,39,17.20
2009,07,18,06,40,17.40
2009,07,18,06,41,17.50
2009,07,18,06,42,17.50
2009,07,18,06,43,17.60
2009,07,18,06,44,17.60
2009,07,18,06,45,17.60
2009,07,18,06,46,17.50
2009,07,18,06,47,17.40
2009,07,18,06,48,17.40
2009,07,18,06,49,17.40
2009,07,18,06,50,17.40
2009,07,18,06,51,17.50
2009,07,18,06,52,17.60
2009,07,18,06,53,17.60
2009,07,18,06,54,17.60
2009,07,18,06,55,17.60
2009,07,18,06,56,17.60
2009,07,18,06,57,17.60
2009,07,18,06,58,17.60
2009,07,18,06,59,17.70
2009,07,18,07,00,17.80
2009,07,18,07,01,17.80
2009,07,18,07,02,18.00
2009,07,18,07,03,18.10
2009,07,18,07,04,18.30
2009,07,18,07,05,18.50
2009,07,18,07,06,18.60
2009,07,18,07,07,18.70
2009,07,18,07,08,18.80
2009,07,18,07,09,18.90
2009,07,18,07,10,18.90
2009,07,18,07,11,19.00
2009,07,18,07,12,19.10
2009,07,18,07,13,19.20
2009,07,18,07,14,19.20
2009,07,18,07,15,19.30
2009,07,18,07,16,19.30
2009,07,18,07,17,19.40
2009,07,18,07,18,19.50
2009,07,18,07,19,19.60
2009,07,18,07,20,19.60
2009,07,18,07,21,19.60
2009,07,18,07,22,19.60
2009,07,18,07,23,19.70
2009,07,18,07,24,19.80
2009,07,18,07,25,20.00
2009,07,18,07,26,20.10
2009,07,18,07,27,20.10
2009,07,18,07,28,20.20
2009,07,18,07,29,20.20
2009,07,18,07,30,20.20
2009,07,18,07,31,20.20
2009,07,18,07,32,20.10
2009,07,18,07,33,20.10
2009,07,18,07,34,20.20
2009,07,18,07,35,20.20
2009,07,18,07,36,20.10
2009,07,18,07,37,20.10
2009,07,18,07,38,20.10
2009,07,18,07,39,20.10
2009,07,18,07,40,20.20
2009,07,18,07,41,20.20
2009,07,18,07,42,20.20
2009,07,18,07,43,20.20
2009,07,18,07,44,20.20
2009,07,18,07,45,20.20
2009,07,18,07,46,20.20
2009,07,18,07,47,20.20
2009,07,18,07,48,20.20
2009,07,18,07,49,20.30
2009,07,18,07,50,20.30
2009,07,18,07,51,20.30
2009,07,18,07,52,20.30
2009,07,18,07,53,20.30
2009,07,18,07,54,20.30
2009,07,18,07,55,20.30
2009,07,18,07,56,20.40
2009,07,18,07,57,20.30
2009,07,18,07,58,20.30
2009,07,18,07,59,20.20
2009,07,18,08,00,20.10
2009,07,18,08,01,20.10
2009,07,18,08,02,20.00
2009,07,18,08,03,20.00
2009,07,18,08,04,19.90
2009,07,18,08,05,19.90
2009,07,18,08,06,19.90
2009,07,18,08,07,19.90
2009,07,18,08,08,19.90
2009,07,18,08,09,19.90
2009,07,18,08,10,19.90
2009,07,18,08,11,19.90
2009,07,18,08,12,19.90
2009,07,18,08,13,19.90
2009,07,18,08,14,19.90
2009,07,18,08,15,19.90
2009,07,18,08,16,19.90
2009,07,18,08,17,19.90
2009,07,18,08,18,19.90
2009,07,18,08,19,19.90
2009,07,18,08,20,19.90
2009,07,18,08,21,19.90
2009,07,18,08,22,19.90
2009,07,18,08,23,19.90
2009,07,18,08,24,20.00
2009,07,18,08,25,20.00
2009,07,18,08,26,20.10
2009,07,18,08,27,20.10
2009,07,18,08,28,20.20
2009,07,18,08,29,20.20
2009,07,18,08,30,20.30
2009,07,18,08,31,20.30
2009,07,18,08,32,20.30
2009,07,18,08,33,20.40
2009,07,18,08,34,20.40
2009,07,18,08,35,20.30
2009,07,18,08,36,20.30
2009,07,18,08,37,20.40
2009,07,18,08,38,20.50
2009,07,18,08,39,20.60
2009,07,18,08,40,20.70
2009,07,18,08,41,20.80
2009,07,18,08,42,20.80
2009,07,18,08,43,20.70
2009,07,18,08,44,20.60
2009,07,18,08,45,20.60
2009,07,18,08,46,20.50
2009,07,18,08,47,20.40
2009,07,18,08,48,20.40
2009,07,18,08,49,20.30
2009,07,18,08,50,20.30
2009,07,18,08,51,20.20
2009,07,18,08,52,20.20
2009,07,18,08,53,20.10
2009,07,18,08,54,20.10
2009,07,18,08,55,20.10
2009,07,18,08,56,20.10
2009,07,18,08,57,20.20
2009,07,18,08,58,20.20
2009,07,18,08,59,20.10
2009,07,18,09,00,20.10
2009,07,18,09,01,20.00
2009,07,18,09,02,20.00
2009,07,18,09,03,20.00
2009,07,18,09,04,19.90
2009,07,18,09,05,19.90
2009,07,18,09,06,19.80
2009,07,18,09,07,19.80
2009,07,18,09,08,19.80
2009,07,18,09,09,19.80
2009,07,18,09,10,19.80
2009,07,18,09,11,19.70
2009,07,18,09,12,19.70
2009,07,18,09,13,19.70
2009,07,18,09,14,19.70
2009,07,18,09,15,19.70
2009,07,18,09,16,19.70
2009,07,18,09,17,19.70
2009,07,18,09,18,19.70
2009,07,18,09,19,19.80
2009,07,18,09,20,19.80
2009,07,18,09,21,19.90
2009,07,18,09,22,19.90
2009,07,18,09,23,19.90
2009,07,18,09,24,20.00
2009,07,18,09,25,20.00
2009,07,18,09,26,20.10
2009,07,18,09,27,20.10
2009,07,18,09,28,20.10
2009,07,18,09,29,20.00
2009,07,18,09,30,19.90
2009,07,18,09,31,19.80
2009,07,18,09,32,19.70
2009,07,18,09,33,19.70
2009,07,18,09,34,19.70
2009,07,18,09,35,19.70
2009,07,18,09,36,19.70
2009,07,18,09,37,19.70
2009,07,18,09,38,19.70
2009,07,18,09,39,19.70
2009,07,18,09,40,19.70
2009,07,18,09,41,19.70
2009,07,18,09,42,19.70
2009,07,18,09,43,19.80
2009,07,18,09,44,19.80
2009,07,18,09,45,19.80
2009,07,18,09,46,19.80
2009,07,18,09,47,19.90
2009,07,18,09,48,20.00
2009,07,18,09,49,20.00
2009,07,18,09,50,20.00
2009,07,18,09,51,19.90
2009,07,18,09,52,19.80
2009,07,18,09,53,19.70
2009,07,18,09,54,19.60
2009,07,18,09,55,19.50
2009,07,18,09,56,19.30
2009,07,18,09,57,19.30
2009,07,18,09,58,19.20
2009,07,18,09,59,19.30
2009,07,18,10,00,19.40
2009,07,18,10,01,19.40
2009,07,18,10,02,19.40
2009,07,18,10,03,19.40
2009,07,18,10,04,19.40
2009,07,18,10,05,19.40
2009,07,18,10,06,19.40
2009,07,18,10,07,19.40
2009,07,18,10,08,19.40
2009,07,18,10,09,19.40
2009,07,18,10,10,19.40
2009,07,18,10,11,19.40
2009,07,18,10,12,19.30
2009,07,18,10,13,19.30
2009,07,18,10,14,19.40
2009,07,18,10,15,19.40
2009,07,18,10,16,19.40
2009,07,18,10,17,19.50
2009,07,18,10,18,19.60
2009,07,18,10,19,19.60
2009,07,18,10,20,19.60
2009,07,18,10,21,19.50
2009,07,18,10,22,19.50
2009,07,18,10,23,19.50
2009,07,18,10,24,19.50
2009,07,18,10,25,19.60
2009,07,18,10,26,19.60
2009,07,18,10,27,19.60
2009,07,18,10,28,19.60
2009,07,18,10,29,19.60
2009,07,18,10,30,19.60
2009,07,18,10,31,19.70
2009,07,18,10,32,19.70
2009,07,18,10,33,19.70
2009,07,18,10,34,19.80
2009,07,18,10,35,19.80
2009,07,18,10,36,19.80
2009,07,18,10,37,19.80
2009,07,18,10,38,19.90
2009,07,18,10,39,20.00
2009,07,18,10,40,20.10
2009,07,18,10,41,20.10
2009,07,18,10,42,20.20
2009,07,18,10,43,20.20
2009,07,18,10,44,20.30
2009,07,18,10,45,20.30
2009,07,18,10,46,20.30
2009,07,18,10,47,20.20
2009,07,18,10,48,20.20
2009,07,18,10,49,20.20
2009,07,18,10,50,20.20
2009,07,18,10,51,20.20
2009,07,18,10,52,20.20
2009,07,18,10,53,20.20
2009,07,18,10,54,20.20
2009,07,18,10,55,20.30
2009,07,18,10,56,20.30
2009,07,18,10,57,20.30
2009,07,18,10,58,20.20
2009,07,18,10,59,20.20
2009,07,18,11,00,20.10
2009,07,18,11,01,20.10
2009,07,18,11,02,20.10
2009,07,18,11,03,20.10
2009,07,18,11,04,20.10
2009,07,18,11,05,20.20
2009,07,18,11,06,20.20
2009,07,18,11,07,20.30
2009,07,18,11,08,20.30
2009,07,18,11,09,20.40
2009,07,18,11,10,20.40
2009,07,18,11,11,20.40
2009,07,18,11,12,20.40
2009,07,18,11,13,20.40
2009,07,18,11,14,20.30
2009,07,18,11,15,20.30
2009,07,18,11,16,20.20
2009,07,18,11,17,20.20
2009,07,18,11,18,20.20
2009,07,18,11,19,20.30
2009,07,18,11,20,20.40
2009,07,18,11,21,20.40
2009,07,18,11,22,20.50
2009,07,18,11,23,20.50
2009,07,18,11,24,20.60
2009,07,18,11,25,20.70
2009,07,18,11,26,20.70
2009,07,18,11,27,20.80
2009,07,18,11,28,20.90
2009,07,18,11,29,20.90
2009,07,18,11,30,21.00
2009,07,18,11,31,21.00
2009,07,18,11,32,21.10
2009,07,18,11,33,21.20
2009,07,18,11,34,21.20
2009,07,18,11,35,21.20
2009,07,18,11,36,21.30
2009,07,18,11,37,21.30
2009,07,18,11,38,21.30
2009,07,18,11,39,21.40
2009,07,18,11,40,21.40
2009,07,18,11,41,21.50
2009,07,18,11,42,21.50
2009,07,18,11,43,21.60
2009,07,18,11,44,21.70
2009,07,18,11,45,21.80
2009,07,18,11,46,21.90
2009,07,18,11,47,22.00
2009,07,18,11,48,22.10
2009,07,18,11,49,22.20
2009,07,18,11,50,22.30
2009,07,18,11,51,22.20
2009,07,18,11,52,22.00
2009,07,18,11,53,21.90
2009,07,18,11,54,21.80
2009,07,18,11,55,21.80
2009,07,18,11,56,21.80
2009,07,18,11,57,21.80
2009,07,18,11,58,21.90
2009,07,18,11,59,22.00
2009,07,18,12,00,22.10
2009,07,18,12,01,22.00
2009,07,18,12,02,21.90
2009,07,18,12,03,21.80
2009,07,18,12,04,21.80
2009,07,18,12,05,21.80
2009,07,18,12,06,21.80
2009,07,18,12,07,21.80
2009,07,18,12,08,21.80
2009,07,18,12,09,21.80
2009,07,18,12,10,21.90
2009,07,18,12,11,22.00
2009,07,18,12,12,22.10
2009,07,18,12,13,22.20
2009,07,18,12,14,22.30
2009,07,18,12,15,22.30
2009,07,18,12,16,22.50
2009,07,18,12,17,22.50
2009,07,18,12,18,22.60
2009,07,18,12,19,22.70
2009,07,18,12,20,22.70
2009,07,18,12,21,22.80
2009,07,18,12,22,22.80
2009,07,18,12,23,23.00
2009,07,18,12,24,23.10
2009,07,18,12,25,23.20
2009,07,18,12,26,23.30
2009,07,18,12,27,23.40
2009,07,18,12,28,23.50
2009,07,18,12,29,23.60
2009,07,18,12,30,23.70
2009,07,18,12,31,23.80
2009,07,18,12,32,23.80
2009,07,18,12,33,23.80
2009,07,18,12,34,23.90
2009,07,18,12,35,24.00
2009,07,18,12,36,24.00
2009,07,18,12,37,23.80
2009,07,18,12,38,23.70
2009,07,18,12,39,23.60
2009,07,18,12,40,23.60
2009,07,18,12,41,23.60
2009,07,18,12,42,23.40
2009,07,18,12,43,23.30
2009,07,18,12,44,23.30
2009,07,18,12,45,23.30
2009,07,18,12,46,23.30
2009,07,18,12,47,23.30
2009,07,18,12,48,23.30
2009,07,18,12,49,23.30
2009,07,18,12,50,23.30
2009,07,18,12,51,23.30
2009,07,18,12,52,23.30
2009,07,18,12,53,23.30
2009,07,18,12,54,23.30
2009,07,18,12,55,23.30
2009,07,18,12,56,23.30
2009,07,18,12,57,23.30
2009,07,18,12,58,23.20
2009,07,18,12,59,23.20
2009,07,18,13,00,23.20
2009,07,18,13,01,23.10
2009,07,18,13,02,23.10
2009,07,18,13,03,23.20
2009,07,18,13,04,23.20
2009,07,18,13,05,23.20
2009,07,18,13,06,23.20
2009,07,18,13,07,23.30
2009,07,18,13,08,23.40
2009,07,18,13,09,23.40
2009,07,18,13,10,23.40
2009,07,18,13,11,23.50
2009,07,18,13,12,23.60
2009,07,18,13,13,23.70
2009,07,18,13,14,23.80
2009,07,18,13,15,23.80
2009,07,18,13,16,23.80
2009,07,18,13,17,23.80
2009,07,18,13,18,23.80
2009,07,18,13,19,23.80
2009,07,18,13,20,23.80
2009,07,18,13,21,23.80
2009,07,18,13,22,23.90
2009,07,18,13,23,23.90
2009,07,18,13,24,23.90
2009,07,18,13,25,23.80
2009,07,18,13,26,23.70
2009,07,18,13,27,23.80
2009,07,18,13,28,23.80
2009,07,18,13,29,23.80
2009,07,18,13,30,23.80
2009,07,18,13,31,23.90
2009,07,18,13,32,23.90
2009,07,18,13,33,24.00
2009,07,18,13,34,24.10
2009,07,18,13,35,24.10
2009,07,18,13,36,24.10
2009,07,18,13,37,24.10
2009,07,18,13,38,24.10
2009,07,18,13,39,24.10
2009,07,18,13,40,24.00
2009,07,18,13,41,23.90
2009,07,18,13,42,23.90
2009,07,18,13,43,23.90
2009,07,18,13,44,24.00
2009,07,18,13,45,24.10
2009,07,18,13,46,24.10
2009,07,18,13,47,24.20
2009,07,18,13,48,24.30
2009,07,18,13,49,24.40
2009,07,18,13,50,24.40
2009,07,18,13,51,24.40
2009,07,18,13,52,24.50
2009,07,18,13,53,24.50
2009,07,18,13,54,24.50
2009,07,18,13,55,24.50
2009,07,18,13,56,24.40
2009,07,18,13,57,24.30
2009,07,18,13,58,24.30
2009,07,18,13,59,24.30
2009,07,18,14,00,24.20
2009,07,18,14,01,24.30
2009,07,18,14,02,24.30
2009,07,18,14,03,24.40
2009,07,18,14,04,24.30
2009,07,18,14,05,24.30
2009,07,18,14,06,24.20
2009,07,18,14,07,24.20
2009,07,18,14,08,24.20
2009,07,18,14,09,24.20
2009,07,18,14,10,24.20
2009,07,18,14,11,24.00
2009,07,18,14,12,23.90
2009,07,18,14,13,23.90
2009,07,18,14,14,23.90
2009,07,18,14,15,24.00
2009,07,18,14,16,24.00
2009,07,18,14,17,24.10
2009,07,18,14,18,24.10
2009,07,18,14,19,24.20
2009,07,18,14,20,24.20
2009,07,18,14,21,24.40
2009,07,18,14,22,24.50
2009,07,18,14,23,24.50
2009,07,18,14,24,24.40
2009,07,18,14,25,24.30
2009,07,18,14,26,24.30
2009,07,18,14,27,24.40
2009,07,18,14,28,24.40
2009,07,18,14,29,24.40
2009,07,18,14,30,24.30
2009,07,18,14,31,24.30
2009,07,18,14,32,24.30
2009,07,18,14,33,24.20
2009,07,18,14,34,24.20
2009,07,18,14,35,24.20
2009,07,18,14,36,24.30
2009,07,18,14,37,24.20
2009,07,18,14,38,24.10
2009,07,18,14,39,24.10
2009,07,18,14,40,24.10
2009,07,18,14,41,24.10
2009,07,18,14,42,24.10
2009,07,18,14,43,24.10
2009,07,18,14,44,24.20
2009,07,18,14,45,24.30
2009,07,18,14,46,24.30
2009,07,18,14,47,24.30
2009,07,18,14,48,24.30
2009,07,18,14,49,24.40
2009,07,18,14,50,24.50
2009,07,18,14,51,24.60
2009,07,18,14,52,24.70
2009,07,18,14,53,24.70
2009,07,18,14,54,24.70
2009,07,18,14,55,24.80
2009,07,18,14,56,24.80
2009,07,18,14,57,24.70
2009,07,18,14,58,24.60
2009,07,18,14,59,24.50
2009,07,18,15,00,24.40
2009,07,18,15,01,24.30
2009,07,18,15,02,24.20
2009,07,18,15,03,24.30
2009,07,18,15,04,24.30
2009,07,18,15,05,24.30
2009,07,18,15,06,24.40
2009,07,18,15,07,24.50
2009,07,18,15,08,24.50
2009,07,18,15,09,24.40
2009,07,18,15,10,24.40
2009,07,18,15,11,24.40
2009,07,18,15,12,24.50
2009,07,18,15,13,24.40
2009,07,18,15,14,24.40
2009,07,18,15,15,24.40
2009,07,18,15,16,24.30
2009,07,18,15,17,24.30
2009,07,18,15,18,24.30
2009,07,18,15,19,24.50
2009,07,18,15,20,24.60
2009,07,18,15,21,24.70
2009,07,18,15,22,24.80
2009,07,18,15,23,24.80
2009,07,18,15,24,24.80
2009,07,18,15,25,24.90
2009,07,18,15,26,25.10
2009,07,18,15,27,25.10
2009,07,18,15,28,25.20
2009,07,18,15,29,25.30
2009,07,18,15,30,25.30
2009,07,18,15,31,25.40
2009,07,18,15,32,25.50
2009,07,18,15,33,25.50
2009,07,18,15,34,25.60
2009,07,18,15,35,25.60
2009,07,18,15,36,25.60
2009,07,18,15,37,25.50
2009,07,18,15,38,25.50
2009,07,18,15,39,25.40
2009,07,18,15,40,25.30
2009,07,18,15,41,25.20
2009,07,18,15,42,25.20
2009,07,18,15,43,25.20
2009,07,18,15,44,25.30
2009,07,18,15,45,25.30
2009,07,18,15,46,25.40
2009,07,18,15,47,25.40
2009,07,18,15,48,25.50
2009,07,18,15,49,25.60
2009,07,18,15,50,25.60
2009,07,18,15,51,25.70
2009,07,18,15,52,25.70
2009,07,18,15,53,25.60
2009,07,18,15,54,25.50
2009,07,18,15,55,25.40
2009,07,18,15,56,25.30
2009,07,18,15,57,25.30
2009,07,18,15,58,25.40
2009,07,18,15,59,25.50
2009,07,18,16,00,25.60
2009,07,18,16,01,25.70
2009,07,18,16,02,25.80
2009,07,18,16,03,25.90
2009,07,18,16,04,25.90
2009,07,18,16,05,25.90
2009,07,18,16,06,25.70
2009,07,18,16,07,25.60
2009,07,18,16,08,25.40
2009,07,18,16,09,25.30
2009,07,18,16,10,25.20
2009,07,18,16,11,25.20
2009,07,18,16,12,25.20
2009,07,18,16,13,25.20
2009,07,18,16,14,25.30
2009,07,18,16,15,25.30
2009,07,18,16,16,25.30
2009,07,18,16,17,25.30
2009,07,18,16,18,25.30
2009,07,18,16,19,25.20
2009,07,18,16,20,25.20
2009,07,18,16,21,25.20
2009,07,18,16,22,25.10
2009,07,18,16,23,25.10
2009,07,18,16,24,25.00
2009,07,18,16,25,25.00
2009,07,18,16,26,24.90
2009,07,18,16,27,24.90
2009,07,18,16,28,25.00
2009,07,18,16,29,25.00
2009,07,18,16,30,25.10
2009,07,18,16,31,25.10
2009,07,18,16,32,25.10
2009,07,18,16,33,25.10
2009,07,18,16,34,25.10
2009,07,18,16,35,25.20
2009,07,18,16,36,25.20
2009,07,18,16,37,25.10
2009,07,18,16,38,25.20
2009,07,18,16,39,25.10
2009,07,18,16,40,25.10
2009,07,18,16,41,25.00
2009,07,18,16,42,24.90
2009,07,18,16,43,24.90
2009,07,18,16,44,24.80
2009,07,18,16,45,24.90
2009,07,18,16,46,24.90
2009,07,18,16,47,24.90
2009,07,18,16,48,24.90
2009,07,18,16,49,24.90
2009,07,18,16,50,24.90
2009,07,18,16,51,24.90
2009,07,18,16,52,24.80
2009,07,18,16,53,24.80
2009,07,18,16,54,24.90
2009,07,18,16,55,24.90
2009,07,18,16,56,24.90
2009,07,18,16,57,24.90
2009,07,18,16,58,24.90
2009,07,18,16,59,24.90
2009,07,18,17,00,25.00
2009,07,18,17,01,25.00
2009,07,18,17,02,25.10
2009,07,18,17,03,25.00
2009,07,18,17,04,25.00
2009,07,18,17,05,25.00
2009,07,18,17,06,25.10
2009,07,18,17,07,25.10
2009,07,18,17,08,25.10
2009,07,18,17,09,25.20
2009,07,18,17,10,25.20
2009,07,18,17,11,25.30
2009,07,18,17,12,25.30
2009,07,18,17,13,25.40
2009,07,18,17,14,25.40
2009,07,18,17,15,25.30
2009,07,18,17,16,25.30
2009,07,18,17,17,25.20
2009,07,18,17,18,25.20
2009,07,18,17,19,25.20